Orbital Elements at Epoch 2459000.5 (2020-May-31.0) TDB
Reference: JPL 24 (heliocentric ecliptic J2000)
Element | Value | Uncertainty (1-sigma) | Units |
e | .09538255979224541 | 3.595e-08 | |
a | 2.658090635076851 | 1.4212e-08 | au |
q | 2.404555146143426 | 9.5242e-08 | au |
i | 6.772210455728728 | 4.3573e-06 | deg |
node | 103.3072104887049 | 4.0766e-05 | deg |
peri | 320.9449993199754 | 5.1119e-05 | deg |
M | 66.85088488157412 | 2.9376e-05 | deg |
tp | 2458706.560626378886 (2019-Aug-11.06062638) | 0.00012906 | TDB |
period | 1582.898636137088 4.33 | 1.2695e-05 3.476e-08 | d yr |
n | .2274308611943374 | 1.824e-09 | deg/d |
Q | 2.911626124010276 | 1.5567e-08 | au |
|
| | Orbit Determination Parameters
Additional Information
|